This demonstration page uses our WeatherBlox Daily Observations layout. Learn more.

Left ArrowRight Arrow

39.08367, -84.50855

Hourly Observations for July 16, 2017

Temp ( °F °C ) Dew Point ( °F °C ) Humidity (%) Winds ( mph kmh ) Pressure ( in mb ) Visibility ( mi km ) Precip ( " mm )
12:53 am 00:53 Clear 66 18.9 66 18.9 100 100 N N/A 30.04 1017 10 16.0934 N/A
1:53 am 01:53 Clear 65 18.3 65 18.3 100 100 N N/A 30.04 1017 9 14.48406 N/A
2:53 am 02:53 Clear 64 17.8 64 17.8 100 100 N N/A 30.04 1017 8 12.87472 N/A
3:53 am 03:53 Clear 63 17.2 63 17.2 100 100 N N/A 30.04 1017 8 12.87472 N/A
4:28 am 04:28 Mostly Clear 63 17.2 63 17.2 100 100 N N/A 30 1016 7 11.26538 N/A
4:35 am 04:35 Mostly Cloudy with Mist and Fog 63 17.2 63 17.2 100 100 N N/A 30 1016 2 3.21868 N/A
4:42 am 04:42 Mostly Cloudy with Mist and Fog 64 17.8 64 17.8 100 100 N N/A 30 1016 1.25 2.011675 N/A
4:46 am 04:46 Mostly Cloudy with Mist and Fog 64 17.8 64 17.8 100 100 N N/A 30 1016 3 4.82802 N/A
4:53 am 04:53 Cloudy 65 18.3 65 18.3 100 100 N N/A 30.02 1017 9 14.48406 N/A
5:00 am 05:00 Cloudy with Mist and Fog 64 17.8 64 17.8 100 100 N N/A 30 1016 1.75 2.816345 N/A
5:10 am 05:10 Mostly Cloudy with Fog 64 17.8 64 17.8 100 100 N N/A 30 1016 0.5 0.80467 N/A
5:14 am 05:14 Mostly Cloudy with Fog 64 17.8 64 17.8 100 100 N N/A 30 1016 0.25 0.402335 N/A
5:42 am 05:42 Mostly Cloudy with Fog 65 18.3 65 18.3 100 100 N N/A 30 1016 0.25 0.402335 N/A
5:53 am 05:53 Mostly Cloudy with Fog 65 18.3 65 18.3 100 100 N N/A 30.03 1017 0.25 0.402335 N/A
6:53 am 06:53 Mostly Cloudy with Fog 65 18.3 65 18.3 100 100 N N/A 30.03 1017 0.5 0.80467 N/A
7:53 am 07:53 Mostly Cloudy with Fog 65 18.3 65 18.3 100 100 N N/A 30.03 1017 0.5 0.80467 N/A
8:53 am 08:53 Mostly Cloudy with Fog 67 19.4 67 19.4 100 100 N N/A 30.03 1017 0.5 0.80467 N/A
9:03 am 09:03 Partly Cloudy with Mist and Fog 68 20 68 20 100 100 N N/A 30.03 1017 2 3.21868 N/A
9:10 am 09:10 Partly Cloudy 68 20 68 20 100 100 NNE 3 6 30 1016 7 11.26538 N/A
9:53 am 09:53 Sunny 73 22.8 69 20.6 87 87 N N/A 30.02 1017 10 16.0934 N/A
10:53 am 10:53 Sunny 78 25.6 66 18.9 67 67 N N/A 30.03 1017 10 16.0934 N/A
11:53 am 11:53 Partly Cloudy 80 26.7 66 18.9 62 62 N N/A 30.02 1017 10 16.0934 N/A
12:53 pm 12:53 Sunny 81 27.2 67 19.4 62 62 S 3 6 30.01 1016 10 16.0934 N/A
1:53 pm 13:53 Partly Cloudy 82 27.8 67 19.4 60 60 VRB 6 9 30 1016 10 16.0934 N/A
2:53 pm 14:53 Mostly Sunny 84 28.9 70 21.1 63 63 NW 8 13 29.99 1016 10 16.0934 N/A
3:53 pm 15:53 Sunny 84 28.9 67 19.4 57 57 WSW 6 9 29.98 1015 10 16.0934 N/A
4:53 pm 16:53 Mostly Sunny 84 28.9 65 18.3 53 53 N N/A 29.96 1015 10 16.0934 N/A
5:53 pm 17:53 Sunny 85 29.4 66 18.9 53 53 undefined N/A 29.94 1014 10 16.0934 N/A
6:53 pm 18:53 Sunny 85 29.4 65 18.3 51 51 SW 3 6 29.93 1014 10 16.0934 N/A
7:53 pm 19:53 Sunny 83 28.3 65 18.3 55 55 NW 6 9 29.93 1014 10 16.0934 N/A
8:53 pm 20:53 Sunny 75 23.9 69 20.6 82 82 N N/A 29.93 1014 10 16.0934 N/A
9:53 pm 21:53 Clear 72 22.2 69 20.6 91 91 N N/A 29.95 1014 10 16.0934 N/A
10:53 pm 22:53 Clear 70 21.1 67 19.4 90 90 N N/A 29.97 1015 10 16.0934 N/A
11:53 pm 23:53 Clear 72 22.2 68 20 87 87 N N/A 29.98 1015 10 16.0934 N/A

Powered by AerisWeather